SES-15 (42709 NORAD) Tracking and Keplerian Element Data

This shows tracking and keplerian element data for the satellite.

Feedback or suggestion? Click here.




ElementValue
Catalog42709
NameSES-15
Epoch Orbit1681
Epoch Day262.2290991
Epoch Year2021
RAAN107.1523
Inclination0.0046
Eccentricity4.63E-05
Argument of Perigee56.8585
Mean Anonmoly147.668
Mean Motion1.00268744
Decay Rate3.6E-07
L11 42709U 17026A 21262.22909910 .00000036 00000-0 00000+0 0 9991
L22 42709 0.0046 107.1523 0000463 56.8585 147.6680 1.00268744 16813

Live tracking and technical data element details for SES-15 (NORAD 42709). SES-15 can be tracked NOW for your location showing map with azimuth and elevation plus other details from your city location.

Track the satellite on the map from your city or location and see movement details for azimuth, elevation, latitude, longitude, range, height, and movement on the map or in text.







IsCatalogInMostPopularTable: catalog: 42709, numindb: 580
Update: records affected: 1



GetName: 42709 SES-15

Hit Count: updated at: Fri, 24 Sep 2021 17:39:00 GMT